Content
SEND FEEDBACK

Daily
Averages
Monthly
Summary
United States of America

DAVENPORT, WASHINGTON


Home > North America > United States > Washington
Elevation: 2447 feet     Latitude: 47 39N     Longitude: 118 09W

WEATHER
 
SELECT A DAY
Number of Records: 250,406;   Date Range: 1/1/95 - 7/29/14
 
SHARE

PRINT THIS DATA

[ ← Previous Day ]
WEATHER ALMANAC - JANUARY 31, 2013
[ Next Day → ]
[ °C ]   °F
Weather ElementAverageHighLow
Temperature33.9 °F37.4 °F (11:58 am)32 °F (12:14 am)
Dewpoint33.8 °F37.4 °F (1:58 pm)32 °F (12:14 am)
Humidity99.4 %100 % (12:14 am)81 % (12:58 pm)
Barometer30.22 in30.30 in (7:58 am)30.15 in (10:48 pm)
Wind Speed7.8 mph13.8 mph (9:55 pm)
Weather ElementAverage
Visibility4.4 mi
Wind DirectionSSW (193.9 °)

Weather ElementTotal
Precipitation---
Heating Degree Days30.3 (Base 65)
Averaged from 94 records on January 31, 2013
WEATHER CONDITIONS BREAKOUT
WIND DIRECTION BREAKOUT
WEATHER BY HOUR - JANUARY 31, 2013
[ °C ]   °F
Local TimeTemperatureDewpointHumidityBarometerVisibilityWind DirectionWind SpeedGust SpeedPrecipitationEventsConditions
12:14 AM32.0 °F32.0 °F100 %30.20 in7.0 miSouth (170°)6.9 mphOvercast
12:15 AM32.0 °F32.0 °F100 %30.20 in5.0 miSouth (170°)5.8 mphOvercast
12:20 AM32.0 °F32.0 °F100 %30.20 in1.5 miSouth (170°)6.9 mphOvercast
12:24 AM32.0 °F32.0 °F100 %30.20 in0.8 miSSE (160°)6.9 mphOvercast
12:44 AM32.0 °F32.0 °F100 %30.20 in0.5 miSouth (180°)8.1 mphFogFog
12:58 AM32.0 °F32.0 °F100 %30.28 in0.5 miSouth (190°)8.1 mph0.00 inFogFog
1:18 AM32.0 °F32.0 °F100 %30.21 in0.5 miSouth (180°)6.9 mphFogFog
1:28 AM32.0 °F32.0 °F100 %30.21 in0.5 miSouth (180°)6.9 mphFogFog
1:58 AM32.0 °F32.0 °F100 %30.28 in0.5 miSouth (190°)5.8 mphFogFog
2:03 AM32.0 °F32.0 °F100 %30.21 in0.8 miSouth (190°)8.1 mphMist
2:08 AM32.0 °F32.0 °F100 %30.21 in0.8 miSouth (190°)8.1 mphMist
2:18 AM32.0 °F32.0 °F100 %30.21 in1.0 miSouth (190°)9.2 mphMist
2:23 AM32.0 °F32.0 °F100 %30.21 in1.0 miSouth (190°)9.2 mphMist
2:24 AM32.0 °F32.0 °F100 %30.21 in1.0 miSouth (190°)9.2 mph
2:40 AM32.0 °F32.0 °F100 %30.21 in1.0 miSouth (190°)8.1 mphMist
2:45 AM32.0 °F32.0 °F100 %30.21 in1.0 miSouth (190°)5.8 mphMist
2:50 AM32.0 °F32.0 °F100 %30.21 in1.0 miSouth (190°)8.1 mphMist
2:58 AM32.0 °F32.0 °F100 %30.28 in1.0 miSouth (190°)10.4 mph0.00 inMist
3:03 AM32.0 °F32.0 °F100 %30.21 in1.0 miSouth (190°)11.5 mphMist
3:08 AM32.0 °F32.0 °F100 %30.21 in1.0 miSouth (190°)9.2 mphMist
3:13 AM32.0 °F32.0 °F100 %30.21 in0.8 miSouth (190°)10.4 mphMist
3:38 AM32.0 °F32.0 °F100 %30.21 in1.0 miSSW (200°)9.2 mphMist
3:43 AM32.0 °F32.0 °F100 %30.21 in1.2 miSSW (200°)10.4 mphOvercast
3:58 AM32.0 °F32.0 °F100 %30.28 in1.5 miSSW (210°)9.2 mphOvercast
4:01 AM32.0 °F32.0 °F100 %30.21 in1.8 miSSW (210°)9.2 mphOvercast
4:11 AM32.0 °F32.0 °F100 %30.21 in1.5 miSSW (210°)10.4 mphOvercast
4:16 AM33.8 °F32.0 °F93 %30.21 in1.5 miSSW (210°)9.2 mphLight Drizzle
4:21 AM32.0 °F32.0 °F100 %30.21 in1.8 miSSW (210°)9.2 mphLight Drizzle
4:26 AM32.0 °F32.0 °F100 %30.21 in2.5 miSSW (210°)8.1 mphLight Drizzle
4:31 AM32.0 °F32.0 °F100 %30.21 in4.0 miSW (220°)9.2 mphLight Drizzle
4:39 AM32.0 °F32.0 °F100 %30.21 in5.0 miSSW (210°)6.9 mphHaze
4:58 AM33.8 °F32.0 °F93 %30.28 in3.0 miSouth (190°)4.6 mph0.00 inOvercast
5:20 AM32.0 °F32.0 °F100 %30.21 in4.0 miSSE (160°)3.5 mphRainLight Rain
5:30 AM32.0 °F32.0 °F100 %30.21 in1.8 miSouth (170°)4.6 mphRainLight Rain
5:39 AM32.0 °F32.0 °F100 %30.21 in2.0 miSouth (190°)4.6 mphOvercast
5:44 AM32.0 °F32.0 °F100 %30.21 in3.0 miSouth (190°)4.6 mphOvercast
5:58 AM32.0 °F32.0 °F100 %30.29 in3.0 miSE (130°)2.3 mph0.00 inOvercast
6:13 AM32.0 °F32.0 °F100 %30.21 in2.5 miSouth (190°)3.5 mphOvercast
6:18 AM32.0 °F32.0 °F100 %30.21 in1.8 miSouth (180°)3.5 mphOvercast
6:23 AM32.0 °F32.0 °F100 %30.21 in1.0 miSouth (170°)4.6 mphMist
6:28 AM32.0 °F32.0 °F100 %30.22 in0.8 miSouth (170°)4.6 mphMist
6:43 AM32.0 °F32.0 °F100 %30.21 in0.5 miSouth (180°)4.6 mphFogFog
6:53 AM32.0 °F32.0 °F100 %30.21 in0.5 miSouth (180°)6.9 mphFogFog
6:58 AM32.0 °F32.0 °F100 %30.28 in0.5 miSouth (170°)5.8 mphFogFog
6:59 AM32.0 °F32.0 °F100 %30.21 in0.2 miSouth (170°)4.6 mph
7:04 AM32.0 °F32.0 °F100 %30.21 in0.2 miSouth (180°)4.6 mph
7:09 AM32.0 °F32.0 °F100 %30.21 in0.2 miSouth (180°)4.6 mph
7:14 AM32.0 °F32.0 °F100 %30.21 in0.2 miSouth (180°)4.6 mphFogFog
7:19 AM32.0 °F32.0 °F100 %30.21 in0.2 miSouth (180°)4.6 mphFogFog
7:24 AM33.8 °F33.8 °F100 %30.21 in0.1 miSouth (180°)5.8 mphFogFog
7:29 AM33.8 °F33.8 °F100 %30.21 in0.2 miSouth (180°)5.8 mph
7:58 AM33.8 °F33.8 °F100 %30.30 in0.2 miSouth (190°)3.5 mphFogFog
8:58 AM35.6 °F35.6 °F100 %30.30 in0.2 miSouth (190°)8.1 mphFogFog
9:18 AM35.6 °F35.6 °F100 %30.22 in0.2 miSouth (190°)9.2 mphFogFog
9:28 AM35.6 °F35.6 °F100 %30.22 in0.2 miSouth (190°)8.1 mph
9:38 AM35.6 °F35.6 °F100 %30.22 in0.2 miSouth (190°)10.4 mphFogFog
9:43 AM35.6 °F35.6 °F100 %30.22 in0.2 miSouth (190°)11.5 mphFogFog
9:58 AM35.6 °F35.6 °F100 %30.30 in0.5 miSSW (200°)12.7 mph
10:03 AM35.6 °F35.6 °F100 %30.22 in0.8 miSSW (200°)10.4 mph
10:08 AM35.6 °F35.6 °F100 %30.22 in2.0 miSSW (200°)10.4 mphOvercast
10:18 AM35.6 °F35.6 °F100 %30.23 in4.0 miSW (220°)5.8 mphOvercast
10:23 AM35.6 °F35.6 °F100 %30.23 in7.0 miSW (220°)4.6 mphOvercast
10:58 AM35.6 °F35.6 °F100 %30.30 in10.0 miSSW (200°)10.4 mphOvercast
11:23 AM35.6 °F35.6 °F100 %30.22 in10.0 miSSW (200°)11.5 mphOvercast
11:33 AM35.6 °F35.6 °F100 %30.22 in10.0 miSSW (200°)6.9 mphOvercast
11:58 AM37.4 °F35.6 °F93 %30.28 in10.0 miSSW (210°)9.2 mphOvercast
12:23 PM35.6 °F35.6 °F100 %30.21 in10.0 miSSW (200°)9.2 mphOvercast
12:58 PM37.4 °F32.0 °F81 %30.28 in10.0 miSSW (200°)6.9 mph0.00 inOvercast
1:28 PM35.6 °F35.6 °F100 %30.20 in10.0 miSSW (200°)9.2 mphOvercast
1:58 PM37.4 °F37.4 °F100 %30.27 in10.0 miSSW (210°)5.8 mphOvercast
2:03 PM37.4 °F37.4 °F100 %30.19 in10.0 miSSW (210°)5.8 mphOvercast
2:08 PM37.4 °F37.4 °F100 %30.20 in10.0 miSSW (210°)9.2 mphOvercast
2:23 PM37.4 °F37.4 °F100 %30.19 in10.0 miSSW (210°)10.4 mphMostly Cloudy
2:58 PM37.4 °F37.4 °F100 %30.27 in10.0 miSSW (210°)10.4 mphMostly Cloudy
3:50 PM37.4 °F37.4 °F100 %30.20 in10.0 miSSW (210°)5.8 mphOvercast
3:58 PM37.0 °F37.0 °F100 %30.26 in10.0 miSW (220°)6.9 mph0.00 inRainLight Rain
4:06 PM37.4 °F37.4 °F100 %30.19 in10.0 miSSW (210°)6.9 mphOvercast
4:18 PM37.4 °F37.4 °F100 %30.19 in10.0 miSouth (190°)8.1 mphMostly Cloudy
4:48 PM37.4 °F37.4 °F100 %30.18 in10.0 miSouth (190°)9.2 mphOvercast
4:58 PM36.5 °F36.5 °F100 %30.24 in10.0 miSouth (190°)9.2 mph0.00 inOvercast
5:35 PM37.4 °F37.4 °F100 %30.17 in10.0 miSSE (160°)3.5 mphOvercast
5:58 PM36.9 °F36.9 °F100 %30.24 in10.0 miSSW (200°)2.3 mph0.00 inLight Drizzle
6:06 PM37.4 °F37.4 °F100 %30.17 in10.0 miSSW (200°)4.6 mphOvercast
6:58 PM36.0 °F36.0 °F100 %30.22 in10.0 miSSE (160°)5.8 mph0.00 inOvercast
7:55 PM37.4 °F35.6 °F93 %30.23 in10.0 miSW (220°)6.9 mphScattered Clouds
8:55 PM35.6 °F33.8 °F93 %30.20 in10.0 miSSW (200°)9.2 mphClear
9:55 PM36.5 °F36.3 °F99 %30.20 in10.0 miSSW (210°)13.8 mphOvercast
10:48 PM35.6 °F35.6 °F100 %30.15 in10.0 miSW (220°)13.8 mphOvercast
10:58 PM35.1 °F35.1 °F100 %30.22 in10.0 miSSW (210°)12.7 mph0.00 inOvercast
10:59 PM35.6 °F35.6 °F100 %30.15 in10.0 miSSW (210°)12.7 mphOvercast
11:18 PM33.8 °F33.8 °F100 %30.15 in10.0 miSW (220°)12.7 mphMostly Cloudy
11:34 PM33.8 °F33.8 °F100 %30.15 in10.0 miSW (220°)12.7 mphClear
11:38 PM33.8 °F33.8 °F100 %30.15 in10.0 miSW (230°)11.5 mphClear
11:58 PM33.8 °F33.8 °F100 %30.23 in10.0 miWSW (240°)8.1 mph0.00 inClear
Hourly data recorded from KSKA, located miles away from Davenport, Washington







STORIES FROM OUR PARTNERS